Probability
0 0 0 0 0 0 0 0 0 1 3 6 10 11 9 5 2 1 2 5 10 13 11 12 14 9 4 1 0 0 0 0 0 0 0 0 0 0 0 0 0 0 0 0 0 0 0 0 0
0 0 0 0 0 0 0 0 1 2 4 9 13 14 12 8 4 3 3 7 14 16 15 17 17 13 6 1 0 0 0 0 0 0 0 0 0 0 0 0 0 0 0 0 0 0 0 0 0
0 0 0 0 0 0 0 1 3 5 8 14 19 19 15 11 7 6 6 10 17 19 19 22 23 18 8 1 0 0 0 0 0 0 0 0 0 0 0 0 0 0 0 0 0 0 0 0 0
0 0 0 0 0 0 0 2 5 7 11 19 25 24 19 14 12 14 14 15 19 22 22 24 28 23 11 2 0 0 0 0 0 0 0 0 0 0 0 0 0 0 0 0 0 0 0 0 0
0 0 0 0 0 0 0 2 6 11 17 25 32 30 23 18 22 26 23 21 24 28 27 28 30 26 15 5 1 0 0 0 0 0 0 0 0 0 0 0 0 0 0 0 0 0 0 0 0
0 0 0 0 0 0 1 2 8 17 25 32 37 34 25 24 31 31 26 24 29 34 33 31 28 22 14 8 2 0 0 0 0 0 0 0 0 0 0 0 0 0 0 0 0 0 0 0 0
0 0 0 0 0 0 1 3 9 19 28 34 37 35 29 28 32 32 28 27 32 37 37 32 24 17 12 7 3 1 0 0 0 0 0 0 0 0 0 0 0 0 0 0 0 0 0 0 0
0 0 0 0 0 0 1 3 8 15 24 32 35 35 33 33 35 36 32 29 31 35 36 32 25 18 12 6 3 1 0 0 0 0 0 0 0 0 0 0 0 0 0 0 0 0 0 0 0
0 0 0 0 0 0 0 2 7 16 28 36 40 42 42 44 46 45 39 31 27 27 29 29 25 19 12 7 3 0 0 0 0 0 0 0 0 0 0 0 0 0 0 0 0 0 0 0 0
0 0 0 0 0 0 0 3 10 24 36 44 49 52 53 54 55 53 46 37 27 23 22 22 20 16 12 9 5 2 0 0 0 0 0 0 0 0 0 0 0 0 0 0 0 0 0 0 0
0 0 0 0 0 0 0 4 14 26 35 43 51 55 55 54 54 53 50 44 34 27 21 15 11 11 10 10 8 3 0 0 0 0 0 0 0 0 0 0 0 0 0 0 0 0 0 0 0
0 0 0 0 0 0 1 5 13 21 27 38 50 53 52 51 49 49 48 46 40 33 24 14 8 8 8 9 7 3 0 0 0 0 0 0 0 0 0 0 0 0 0 0 0 0 0 0 0
0 0 0 0 0 1 3 7 12 18 28 43 55 57 54 51 48 46 46 45 42 36 28 20 13 9 7 7 5 2 0 0 0 0 0 0 0 0 0 0 0 0 0 0 0 0 0 0 0
0 0 0 0 0 1 3 6 12 21 35 51 60 61 57 52 47 44 43 43 44 41 35 28 19 11 9 7 4 1 0 0 0 0 0 0 0 0 0 0 0 0 0 0 0 0 0 0 0
0 0 0 0 0 0 1 3 9 21 37 52 60 61 57 51 44 38 38 41 44 43 39 31 22 15 13 12 8 3 1 0 0 0 0 0 0 0 0 0 0 0 0 0 0 0 0 0 0
0 0 0 0 0 0 0 2 8 18 31 43 52 55 52 46 37 32 35 41 42 40 35 29 23 20 18 16 12 6 2 1 1 1 2 1 0 0 0 0 0 0 0 0 0 0 0 0 0
0 0 0 0 0 0 1 3 7 14 22 31 40 46 46 39 32 30 33 37 37 33 29 26 23 20 19 16 12 7 3 2 2 2 2 1 0 0 0 0 0 0 0 0 0 0 0 0 0
0 0 0 0 0 1 3 5 7 11 15 20 29 38 40 35 30 30 31 31 29 26 24 22 21 18 15 13 10 5 2 1 1 2 1 1 0 0 0 0 0 0 0 0 0 0 0 0 0
0 0 0 0 1 2 5 6 7 9 10 13 21 31 35 32 28 27 26 24 23 21 19 18 18 16 13 10 7 3 1 0 0 0 0 0 0 0 0 0 0 0 0 0 0 0 0 0 0
0 0 0 0 1 2 4 5 5 6 6 9 14 23 29 30 26 22 21 20 20 17 14 13 14 13 11 8 4 1 0 0 0 0 0 0 0 0 0 0 0 0 0 0 0 0 0 0 0
0 0 0 0 1 1 1 2 3 4 4 5 8 16 24 27 24 19 18 18 17 14 10 9 10 11 9 6 2 0 0 0 0 0 0 0 0 0 0 0 0 0 0 0 0 0 0 0 0
0 0 0 0 0 0 0 1 2 2 2 2 4 10 17 22 21 18 18 18 15 11 9 7 7 7 6 4 1 0 0 0 0 0 0 0 0 0 0 0 0 0 0 0 0 0 0 0 0
0 0 0 0 0 0 0 0 1 1 0 0 2 6 13 17 17 16 18 17 13 10 7 5 4 4 4 3 1 0 0 0 0 0 0 0 0 0 0 0 0 0 0 0 0 0 0 0 0
0 0 0 0 0 0 0 0 0 0 0 0 1 4 10 13 13 12 13 12 10 8 5 3 3 3 3 2 1 0 0 0 0 0 0 0 0 0 0 0 0 0 0 0 0 0 0 0 0
0 0 0 0 0 0 0 0 0 0 0 0 2 3 5 7 8 9 9 8 7 6 4 2 1 1 2 1 0 0 0 0 0 0 0 0 0 0 0 0 0 0 0 0 0 0 0 0 0
0 0 0 0 0 0 0 0 0 0 0 0 1 2 2 3 5 7 7 6 6 7 5 2 1 1 1 1 0 0 0 0 0 0 0 0 0 0 0 0 0 0 0 0 0 0 0 0 0
0 0 0 0 0 0 0 0 0 0 0 1 1 1 1 2 4 6 6 5 6 8 7 4 3 3 2 1 0 0 0 0 0 0 0 0 0 0 0 0 0 0 0 0 0 0 0 0 0
0 0 0 0 0 0 0 0 0 0 1 1 1 1 1 1 3 5 4 5 7 8 7 5 4 5 4 2 0 0 0 0 0 0 0 0 0 0 0 0 0 0 0 0 0 0 0 0 0
0 0 0 0 0 0 0 0 0 0 1 2 1 1 1 1 3 4 4 5 6 8 8 7 6 6 5 3 1 0 0 0 0 0 0 0 0 0 0 0 0 0 0 0 0 0 0 0 0
0 0 0 0 0 0 0 0 0 0 1 2 2 1 1 1 2 4 5 5 5 7 10 10 7 6 5 3 2 1 0 0 0 0 0 0 0 0 0 0 0 0 0 0 0 0 0 0 0
Wind_Speed
6 4 2 1 2 3 2 4 5 5 2 3 6 8 7 5 5 4 5 14 18 16 13 16 18 19 19 18 18 17 16 16 15 15 14 14 14 14 13 13 13 12 12 12 11 11 11 10 10
4 4 1 2 2 1 4 5 6 6 6 8 9 8 6 4 5 9 9 16 19 16 12 14 19 19 19 18 18 17 16 16 15 14 14 14 14 13 13 13 12 12 12 11 11 10 10 10 10
3 3 2 2 2 4 4 4 5 5 5 7 7 5 4 5 7 7 10 18 17 14 12 15 21 20 19 18 18 17 16 16 15 14 14 14 13 13 13 12 12 12 11 11 10 10 9 9 9
1 2 1 0 6 8 6 7 6 7 5 6 9 5 2 4 6 12 18 18 16 13 11 15 20 20 19 18 18 17 16 15 15 14 14 13 13 13 12 12 11 11 11 10 9 8 8 8 8
2 2 1 3 6 4 4 7 7 8 5 6 9 6 2 2 13 20 18 18 16 13 10 14 20 20 19 18 18 17 17 15 14 14 13 13 12 12 12 11 11 10 10 9 8 8 7 7 8
1 2 0 4 5 2 3 6 9 9 9 8 10 8 2 6 16 18 17 16 16 15 11 12 19 20 19 18 18 17 16 15 14 14 13 12 12 11 11 10 10 10 9 8 7 6 6 6 6
2 1 3 5 4 0 3 5 9 9 9 7 9 8 4 7 12 16 15 15 14 14 12 9 11 14 18 18 17 17 16 15 14 13 12 12 11 11 10 9 9 9 9 8 6 5 4 4 4
4 1 4 4 1 0 2 4 7 9 7 7 7 9 9 10 13 14 13 13 13 12 11 9 8 8 9 11 16 16 15 14 13 12 12 11 10 10 10 8 8 8 8 7 6 5 3 2 2
2 1 4 4 2 1 1 4 4 6 8 4 3 5 12 16 16 15 13 11 10 11 9 9 9 8 7 8 12 13 14 13 11 9 11 9 4 4 5 7 8 8 7 7 6 4 3 1 1
5 3 8 5 2 1 1 4 5 6 7 4 5 7 13 15 17 18 17 16 13 12 10 9 9 8 8 8 7 4 5 5 4 3 4 3 3 3 5 7 9 8 7 6 6 5 3 1 0
5 7 7 6 3 0 2 3 4 8 4 7 12 14 14 14 14 16 16 16 15 14 12 10 9 8 7 5 5 3 3 3 3 3 3 3 2 2 2 2 2 3 4 2 3 2 1 1 1
4 8 6 4 3 0 2 3 3 4 7 10 14 15 14 14 13 14 14 14 13 13 11 10 10 8 6 6 5 4 3 3 2 3 3 3 2 2 2 2 2 1 1 2 1 1 1 1 2
4 5 5 4 2 0 3 3 4 2 6 11 13 14 13 12 10 10 11 12 12 11 11 11 10 8 6 5 5 5 4 4 3 3 3 4 3 3 2 1 1 1 1 2 2 2 2 1 1
5 7 8 5 3 1 4 3 5 4 8 11 13 11 10 10 9 9 11 11 12 11 10 9 10 8 7 5 4 5 4 4 4 3 4 4 3 3 2 2 1 1 1 2 2 2 2 2 2
5 7 10 6 2 2 5 1 3 8 10 11 12 11 10 9 8 9 11 12 12 12 11 10 11 9 8 6 6 6 5 5 4 3 4 4 4 3 3 2 2 1 1 2 2 2 2 2 2
5 4 5 8 3 3 5 4 4 8 11 10 10 10 9 8 7 7 9 10 10 11 11 11 11 10 8 7 6 6 5 5 4 3 3 4 4 4 3 2 1 1 2 2 3 2 2 2 2
3 3 6 8 4 3 4 4 4 7 10 9 8 8 8 7 6 6 7 9 9 11 11 10 9 10 9 7 6 6 6 5 4 4 3 3 4 4 3 2 1 2 3 2 3 2 2 2 1
7 6 7 7 4 3 2 3 5 7 8 8 7 7 7 8 7 8 7 8 8 8 9 10 9 9 8 7 6 5 5 4 3 3 4 4 4 4 4 3 3 3 3 3 3 3 2 1 1
10 10 9 7 2 4 2 3 5 6 5 6 6 7 8 7 7 8 9 9 8 8 8 9 10 8 8 6 6 6 4 3 3 3 4 4 4 4 4 3 3 3 3 3 3 2 3 2 1
12 9 6 3 4 4 1 1 2 3 4 6 7 7 8 7 7 8 9 8 8 9 9 9 8 8 8 6 5 4 5 3 3 3 3 4 4 4 4 4 3 3 3 4 3 3 2 2 2
10 6 4 2 3 6 3 3 2 2 1 2 5 7 7 9 10 10 10 9 9 9 10 10 8 8 7 7 5 5 4 3 2 2 2 2 4 4 4 5 4 3 3 3 3 3 3 2 2
8 6 2 3 4 3 4 2 5 2 4 2 3 4 7 7 9 10 10 10 11 10 9 9 8 7 7 7 8 9 6 5 4 4 3 3 4 4 5 5 5 4 3 3 2 3 2 3 2
8 4 2 4 5 3 4 2 7 4 4 4 4 5 7 8 10 11 11 11 10 9 9 8 8 7 7 7 8 8 5 4 3 3 4 3 2 4 4 5 5 4 3 3 3 3 3 3 2
5 3 6 6 6 3 2 1 6 4 5 4 4 6 8 9 10 9 9 8 8 8 8 8 8 7 7 7 7 7 7 6 6 5 5 3 2 2 3 4 4 4 3 3 3 3 3 3 3
3 4 5 6 4 2 2 1 8 8 6 5 6 6 8 9 10 10 10 9 9 9 9 9 9 8 7 7 7 7 7 8 8 7 6 5 3 3 4 4 4 3 3 4 3 3 3 2 2
5 6 6 4 4 2 2 5 8 6 5 4 4 6 8 9 10 11 11 10 10 11 10 10 10 8 8 7 6 6 6 5 5 6 5 5 4 5 5 5 5 5 5 4 3 2 2 2 2
3 3 7 7 3 3 3 6 8 3 2 2 3 6 8 10 11 11 10 10 10 11 10 10 10 8 8 7 6 5 6 5 5 5 5 4 4 5 6 7 6 5 5 5 4 2 2 2 2
4 4 5 5 4 2 2 4 6 5 5 4 4 5 6 8 10 10 10 10 10 10 9 9 9 9 8 8 7 6 6 6 5 5 5 5 5 5 6 7 7 6 5 5 4 3 3 3 3
1 2 4 4 5 6 4 7 8 9 8 7 6 7 8 10 11 11 10 10 9 9 9 9 9 8 8 8 7 6 6 6 5 5 6 5 5 5 7 7 7 7 6 6 5 5 4 4 4
5 6 7 5 3 4 4 7 6 8 7 7 7 6 7 9 9 9 10 10 9 10 9 10 9 9 9 8 7 7 6 6 6 6 6 5 5 6 7 7 7 7 7 7 7 7 6 5 5
Wind_Direction
171 177 180 27 45 42 266 226 193 209 187 117 103 104 115 116 152 165 140 140 138 142 146 143 140 137 135 132 130 128 126 124 122 120 118 116 114 113 112 110 109 107 106 103 98 94 92 92 94
179 187 157 52 82 354 267 229 186 204 163 119 90 89 90 76 93 112 124 141 140 141 142 142 141 138 137 136 134 132 130 128 127 126 123 121 120 118 115 114 112 110 108 105 100 95 92 92 93
202 192 136 105 195 206 235 231 178 158 127 115 98 74 98 130 124 130 143 142 138 139 140 144 142 140 139 138 136 135 134 133 131 130 128 125 123 122 120 118 116 113 110 106 101 96 92 91 92
160 98 58 111 252 240 216 217 164 130 89 97 109 94 75 147 141 138 140 141 137 137 139 144 142 141 140 140 139 138 138 137 135 133 131 130 129 127 126 124 120 117 114 110 105 98 93 91 88
117 102 44 281 262 244 208 182 152 128 123 115 109 102 66 49 123 133 141 141 138 137 139 143 142 142 142 143 143 142 141 141 141 139 136 135 134 134 132 130 127 123 120 116 112 105 96 90 84
38 92 75 269 271 262 175 139 117 110 118 118 112 116 92 119 131 142 142 141 141 140 139 143 145 145 145 146 146 145 145 146 146 145 144 143 143 142 140 138 136 134 130 126 121 115 104 93 82
162 153 241 255 276 304 147 132 128 129 129 142 136 119 125 146 145 142 139 138 140 141 140 142 148 148 149 149 149 149 150 151 152 151 150 149 149 150 150 150 149 146 144 141 135 126 115 100 82
174 103 294 283 266 329 146 122 130 130 129 135 133 138 159 170 146 137 134 135 139 142 145 145 146 146 147 150 152 153 154 155 156 156 156 158 159 160 161 162 164 161 157 156 155 149 141 114 80
164 65 273 268 273 285 115 107 115 106 113 117 118 142 153 149 139 136 133 135 144 147 149 149 148 148 147 150 157 155 157 160 160 162 165 162 159 163 169 178 180 176 172 172 174 174 180 192 17
144 186 241 239 236 211 60 95 124 97 100 95 96 112 135 141 143 147 151 154 158 157 158 157 154 155 156 159 147 151 154 156 156 161 159 151 164 183 185 193 193 189 187 189 194 195 200 200 16
186 214 251 272 274 107 84 71 100 121 145 172 155 152 151 150 151 154 158 160 162 162 162 159 159 161 164 150 151 153 144 149 158 165 162 155 158 174 170 167 193 194 193 193 206 202 186 178 164
240 254 260 278 298 17 127 106 93 147 187 172 158 154 151 157 158 157 160 161 158 160 162 158 158 160 162 153 159 156 150 155 156 156 150 138 131 131 141 150 161 156 167 177 174 176 193 191 167
280 282 290 290 316 179 104 113 121 150 148 149 152 152 156 158 154 151 155 157 153 160 163 160 154 155 158 155 163 156 154 153 145 132 128 129 126 127 132 140 140 149 152 158 155 170 179 160 140
292 305 300 299 300 173 126 135 120 172 152 149 153 155 155 158 155 148 148 157 156 159 159 153 150 155 156 157 158 149 147 138 127 121 122 121 123 124 116 107 116 119 139 153 158 165 158 153 141
310 315 310 292 259 199 113 43 197 171 155 157 161 161 159 160 155 159 161 163 161 159 155 155 152 156 155 152 156 143 139 132 124 122 118 117 117 113 108 108 104 100 112 126 116 108 101 126 127
332 325 295 283 225 203 130 227 230 164 156 162 167 167 167 170 167 166 163 159 162 156 159 161 154 152 151 150 138 132 133 129 127 122 111 108 104 102 100 105 98 79 85 99 106 92 90 80 95
332 280 271 282 247 180 145 215 202 169 160 168 169 167 170 170 161 166 167 158 163 162 161 156 153 148 149 142 129 127 126 125 128 123 112 104 97 99 100 95 81 84 88 85 101 86 105 103 96
270 273 276 275 274 129 150 207 190 180 157 162 166 166 168 177 175 167 167 165 159 160 157 150 153 148 141 130 117 113 110 118 122 122 122 113 101 97 97 91 75 85 89 80 84 86 78 108 122
259 269 277 283 279 111 161 188 185 180 160 166 170 174 175 178 173 164 166 167 157 156 158 155 152 151 144 138 133 131 133 140 131 134 134 122 109 99 94 91 76 84 93 97 96 87 69 49 73
268 272 276 315 33 94 146 190 183 174 177 182 181 181 176 163 163 166 164 166 165 163 160 152 154 154 152 146 141 138 138 145 141 133 128 129 118 115 106 104 100 91 90 75 67 77 82 28 60
279 254 239 207 66 41 47 2 344 335 311 202 192 177 166 170 166 167 167 172 171 170 167 164 161 157 154 145 126 117 101 93 92 118 136 144 131 121 114 111 105 94 102 97 83 82 102 80 20
281 271 204 128 87 6 27 324 301 319 320 273 214 180 170 172 168 168 169 173 176 175 168 161 161 159 157 148 141 146 147 153 175 171 166 159 147 138 130 119 110 104 107 109 107 92 100 106 64
270 275 103 99 105 69 22 63 300 343 308 282 237 197 178 174 172 171 171 173 174 170 165 164 161 165 164 156 152 151 148 156 153 148 151 156 157 157 147 132 123 120 116 116 106 95 88 100 111
276 39 55 57 71 49 315 84 285 266 253 275 242 203 182 174 169 164 162 163 166 164 161 164 163 168 171 162 155 154 155 155 149 156 166 174 174 169 168 150 141 141 137 135 128 117 107 104 101
336 69 22 360 17 262 244 211 253 254 250 250 239 206 181 172 164 163 166 168 168 168 168 169 169 174 176 166 162 162 162 162 164 168 176 176 181 188 193 169 159 158 163 159 145 133 128 128 120
249 153 167 206 221 215 266 242 257 260 248 238 213 180 166 168 170 173 175 174 171 171 173 173 176 179 176 171 172 170 166 163 170 174 175 185 192 198 189 181 176 175 173 168 154 147 164 158 155
218 221 176 145 129 125 248 279 296 274 272 236 163 159 171 175 177 176 175 174 174 174 178 177 176 179 179 177 174 176 175 171 175 178 178 188 199 200 190 184 181 182 180 177 166 172 193 185 193
173 165 94 110 140 187 240 251 248 242 218 210 189 183 187 179 179 177 177 177 176 176 175 173 176 182 182 180 182 186 186 183 181 178 187 194 201 198 181 184 184 185 186 183 176 182 198 192 211
214 104 119 129 150 151 205 252 228 209 201 200 207 203 193 186 182 182 180 178 175 172 173 176 179 180 184 187 188 186 187 188 185 189 197 195 195 190 185 184 185 189 193 192 189 201 202 206 225
175 178 151 149 216 162 173 253 253 196 196 198 202 200 191 185 180 180 177 173 174 176 178 181 182 184 188 189 188 192 191 190 194 203 205 197 194 192 190 186 188 197 200 198 198 209 212 211 222